Lone Rock, WI

2:09 PM CDT on May 22, 2017 (GMT -0500)
Tri-County Regional

Weather History for KLNR - June, 2013

Change the Weather History Date:

Tuesday, June 25, 2013

  Actual Average Record
Temperature  
Mean Temperature 74 °F -  
Max Temperature 82 °F 79 °F 91 °F (2016)
Min Temperature 66 °F 56 °F 41 °F (2004)
Cooling Degree Days 9    
Growing Degree Days 24 (Base 50)    
Moisture  
Dew Point 67 °F    
Average Humidity 90    
Maximum Humidity 100    
Minimum Humidity 72    
Precipitation  
Precipitation 1.08 in - - ()
Sea Level Pressure  
Sea Level Pressure 29.86 in    
Wind  
Wind Speed 4 mph (ESE)    
Max Wind Speed 10 mph    
Max Gust Speed -    
Visibility 6 miles    
Events Fog , Rain , Thunderstorm    
Averages and records for this station are not official NWS values.
T = Trace of Precipitation, MM = Missing Value Source: NWS Daily Summary

Daily Weather History Graph

Daily Weather History Graph

Search for Another Location

Airport or City:

Trip Planner

Search our weather history database for the weather conditions in past years. The results will help you decide how hot, cold, wet, or windy it might be!

Date:

Astronomy

Jun. 25, 2013 Rise Set
Actual Time 5:22 AM CDT 8:44 PM CDT
Civil Twilight 4:46 AM CDT 9:20 PM CDT
Nautical Twilight 4:00 AM CDT 10:06 PM CDT
Astronomical Twilight 3:02 AM CDT 11:04 PM CDT
Moon 10:24 PM CDT (6/25) 8:06 AM CDT (6/25)
Length of Visible Light 16h 33m
Length of Day
15h 22m
Waning Gibbous, 92% of the Moon is Illuminated
Jun 25
Waning Gibbous
Jun 29
Last Quarter
Jul 8
New
Jul 15
First Quarter
Jul 22
Full

Hourly Weather History & Observations

Time (CDT) Temp. Heat Index Dew Point Humidity Pressure Visibility Wind Dir Wind Speed Gust Speed Precip Events Conditions
12:16 AM 69.8 °F - 66.2 °F 88% 29.94 in 2.0 mi South 6.9 mph - 0.08 in Rain , Thunderstorm Heavy Thunderstorms and Rain
12:34 AM 68.0 °F - 66.2 °F 94% 29.88 in 4.0 mi ESE 6.9 mph - 0.13 in Rain , Thunderstorm Light Thunderstorms and Rain
12:50 AM 68.0 °F - 66.2 °F 94% 29.88 in 7.0 mi South 6.9 mph - 0.14 in Rain , Thunderstorm Light Rain
12:56 AM 68.0 °F - 66.0 °F 93% 29.86 in 7.0 mi SSE 5.8 mph - 0.14 in Rain , Thunderstorm Light Rain
1:08 AM 68.0 °F - 66.2 °F 94% 29.88 in 6.0 mi East 6.9 mph - 0.01 in Rain , Thunderstorm Light Rain
1:27 AM 68.0 °F - 66.2 °F 94% 29.91 in 1.8 mi Calm Calm - 0.09 in Rain Heavy Rain
1:35 AM 68.0 °F - 66.2 °F 94% 29.91 in 2.0 mi Calm Calm - 0.11 in Rain , Thunderstorm Light Thunderstorms and Rain
1:43 AM 66.2 °F - 66.2 °F 100% 29.90 in 3.0 mi SSE 3.5 mph - 0.13 in Rain , Thunderstorm Thunderstorms and Rain
1:56 AM 66.9 °F - 66.0 °F 97% 29.86 in 3.0 mi Calm Calm - 0.16 in Rain , Thunderstorm Light Thunderstorms and Rain
2:13 AM 66.2 °F - 64.4 °F 94% 29.88 in 8.0 mi Calm Calm - 0.01 in Rain , Thunderstorm Light Thunderstorms and Rain
2:30 AM 66.2 °F - 64.4 °F 94% 29.88 in 8.0 mi ESE 3.5 mph - 0.02 in Rain Light Rain
2:56 AM 66.9 °F - 64.9 °F 93% 29.86 in 9.0 mi NNE 5.8 mph - 0.03 in Rain , Thunderstorm Light Rain
3:04 AM 66.2 °F - 64.4 °F 94% 29.90 in 1.8 mi North 9.2 mph - 0.12 in Rain , Thunderstorm Heavy Thunderstorms and Rain
3:24 AM 66.2 °F - 64.4 °F 94% 29.87 in 3.0 mi East 5.8 mph - 0.29 in Rain , Thunderstorm Rain
3:31 AM 66.2 °F - 64.4 °F 94% 29.89 in 6.0 mi Calm Calm - 0.30 in Rain , Thunderstorm Light Rain
3:43 AM 66.2 °F - 64.4 °F 94% 29.90 in 3.0 mi NNE 4.6 mph - 0.36 in Rain , Thunderstorm Rain
3:56 AM 66.0 °F - 64.9 °F 96% 29.88 in 1.8 mi Calm Calm - 0.43 in Rain , Thunderstorm Heavy Rain
4:06 AM 66.2 °F - 64.4 °F 94% 29.89 in 3.0 mi NE 6.9 mph - 0.02 in Rain , Thunderstorm Light Thunderstorms and Rain
4:38 AM 66.2 °F - 64.4 °F 94% 29.90 in 1.8 mi East 3.5 mph - 0.13 in Rain , Thunderstorm Heavy Rain
4:45 AM 66.2 °F - 64.4 °F 94% 29.88 in 3.0 mi ESE 5.8 mph - 0.14 in Rain , Thunderstorm Light Rain
4:56 AM 66.0 °F - 64.0 °F 93% 29.86 in 8.0 mi ESE 5.8 mph - 0.15 in Rain Light Rain
5:13 AM 66.2 °F - 64.4 °F 94% 29.88 in 9.0 mi East 3.5 mph - 0.01 in Rain Light Rain
5:56 AM 66.0 °F - 64.0 °F 93% 29.83 in 10.0 mi East 5.8 mph - 0.01 in   Overcast
6:18 AM 66.2 °F - 64.4 °F 94% 29.85 in 9.0 mi SSE 4.6 mph - N/A   Overcast
6:56 AM 68.0 °F - 64.9 °F 90% 29.85 in 10.0 mi Calm Calm - N/A   Overcast
7:28 AM 66.2 °F - 64.4 °F 94% 29.88 in 1.2 mi Calm Calm - 0.05 in Rain Light Rain
7:32 AM 66.2 °F - 64.4 °F 94% 29.88 in 3.0 mi Calm Calm - 0.05 in Rain Light Rain
7:56 AM 66.9 °F - 64.9 °F 93% 29.88 in 9.0 mi Calm Calm - 0.06 in Rain Light Rain
8:09 AM 66.2 °F - 64.4 °F 94% 29.92 in 10.0 mi Calm Calm - 0.00 in Rain , Thunderstorm Light Rain
8:19 AM 66.2 °F - 64.4 °F 94% 29.91 in 8.0 mi West 3.5 mph - 0.00 in Rain , Thunderstorm Light Rain
8:26 AM 66.2 °F - 64.4 °F 94% 29.92 in 1.8 mi Calm Calm - 0.02 in Rain , Thunderstorm Light Thunderstorms and Rain
8:34 AM 66.2 °F - 64.4 °F 94% 29.91 in 0.5 mi NNE 3.5 mph - 0.09 in Fog , Rain , Thunderstorm Thunderstorms and Rain
8:38 AM 66.2 °F - 64.4 °F 94% 29.90 in 2.0 mi ENE 4.6 mph - 0.09 in Rain , Thunderstorm Light Thunderstorms and Rain
8:45 AM 66.2 °F - 64.4 °F 94% 29.88 in 8.0 mi SE 10.4 mph - 0.09 in Rain , Thunderstorm Light Rain
8:56 AM 66.9 °F - 64.9 °F 93% 29.85 in 10.0 mi East 5.8 mph - 0.09 in   Mostly Cloudy
9:06 AM 66.2 °F - 64.4 °F 94% 29.85 in 9.0 mi East 10.4 mph - 0.00 in Rain Light Rain
9:56 AM 69.1 °F - 66.0 °F 90% 29.80 in 10.0 mi NNE 6.9 mph - 0.01 in   Partly Cloudy
10:56 AM 71.1 °F - 66.9 °F 87% 29.85 in 10.0 mi ESE 5.8 mph - N/A   Partly Cloudy
11:56 AM 73.9 °F - 68.0 °F 82% 29.85 in 10.0 mi ESE 5.8 mph - N/A   Clear
12:19 PM 73.4 °F - 68.0 °F 83% 29.87 in 10.0 mi SE 5.8 mph - N/A   Mostly Cloudy
12:56 PM 75.0 °F - 68.0 °F 79% 29.85 in 10.0 mi Calm Calm - N/A   Overcast
1:34 PM 77.0 °F - 69.8 °F 78% 29.86 in 10.0 mi East 5.8 mph - N/A   Scattered Clouds
1:41 PM 77.0 °F - 69.8 °F 78% 29.85 in 10.0 mi ENE 6.9 mph - N/A   Mostly Cloudy
1:56 PM 79.0 °F - 71.1 °F 77% 29.82 in 10.0 mi SSE 5.8 mph - N/A   Mostly Cloudy
2:12 PM 78.8 °F - 71.6 °F 78% 29.83 in 10.0 mi Variable 3.5 mph - N/A   Scattered Clouds
2:56 PM 81.0 °F 85.2 °F 72.0 °F 74% 29.80 in 9.0 mi Variable 3.5 mph - N/A   Partly Cloudy
3:56 PM 82.9 °F 88.8 °F 73.0 °F 72% 29.78 in 9.0 mi Calm Calm - N/A   Clear
4:56 PM 82.0 °F 87.4 °F 73.0 °F 74% 29.78 in 8.0 mi South 4.6 mph - N/A   Overcast
5:56 PM 82.0 °F 87.9 °F 73.9 °F 76% 29.77 in 7.0 mi SSE 4.6 mph - N/A   Mostly Cloudy
6:23 PM 80.6 °F 85.4 °F 73.4 °F 79% 29.79 in 6.0 mi SE 5.8 mph - N/A   Haze
6:56 PM 80.1 °F 84.5 °F 73.9 °F 81% 29.77 in 6.0 mi ESE 3.5 mph - N/A   Haze
7:56 PM 79.0 °F - 73.9 °F 84% 29.77 in 5.0 mi ESE 4.6 mph - N/A   Haze
8:56 PM 78.1 °F - 73.9 °F 87% 29.76 in 5.0 mi Calm Calm - N/A   Clear
9:56 PM 75.9 °F - 73.9 °F 94% 29.78 in 4.0 mi Calm Calm - N/A   Clear
10:56 PM 73.9 °F - 72.0 °F 93% 29.76 in 4.0 mi East 3.5 mph - N/A   Clear
11:56 PM 73.0 °F - 71.1 °F 93% 29.75 in 4.0 mi East 5.8 mph - N/A   Clear